Вернуться в каталог

COSMOS 628

АктивенВоенныеPO
NORAD 7094·PAYLOAD·🇷🇺 Russia

Запущен Jan 17, 1974 с Plesetsk Cosmodrome

Loading…

Ближайшие Пролёты (ближайшие 24 часа)

TLE

СвежийSource: Space-Track

Эпоха: Sep 14, 2026, 09:02 UTC

1 07094U 74001A   26257.37672442  .00000049  00000-0  35181-4 0  9994
2 07094  82.9539 115.6506 0035237 251.8369 281.5185 13.75973982642844

Отслеживайте COSMOS 628 в реальном времени с AllMySat

Download on the App Store